Location: Banios
(43.0451°N, 0.2335°E)
Time: 05:20:23
(UTC+00:00)

N. Korean satellite - Pass Details

Date: 10 December 2021
Orbit: 447 x 491 km, 97.3° (Epoch: 25 January)

Event Time Altitude Azimuth Distance (km) Brightness Sun altitude
Rises 05:05:23 0° 15° (NNE) 2,459 10.2 -23.7°
Enters shadow 05:07:25 10° 19° (NNE) 1,592 9.3 -23.3°
Exits shadow 05:09:59 45° 43° (NE) 624 7.2 -22.8°
Maximum altitude 05:10:47 62° 100° (E) 509 6.8 -22.7°
Drops below altitude 10° 05:14:08 10° 183° (S) 1,576 9.2 -22.1°
Sets 05:16:11 0° 186° (S) 2,448 10.2 -21.7°
